Temperature
3 3 2 2 1 1 -0 -1 -2 -3 -3 -2 -1 -0 -0 -0 0 0 -0 -0 -1 -2 -2 -2 -2 -2 -1 -1 -1 -1 -1 -1 -0 0 0 1 1 2
3 2 2 2 1 0 -0 -1 -2 -3 -4 -3 -3 -2 -2 -1 -1 -1 -1 -2 -2 -2 -2 -2 -3 -3 -2 -2 -2 -1 -1 -1 -1 -1 -0 0 1 1
2 2 1 1 1 0 -1 -1 -2 -3 -4 -4 -3 -3 -3 -3 -2 -2 -2 -2 -2 -2 -3 -3 -3 -3 -3 -3 -2 -2 -2 -2 -1 -1 -1 -0 0 1
2 1 1 0 -0 -0 -1 -2 -2 -3 -4 -4 -4 -4 -5 -4 -4 -4 -4 -4 -3 -3 -3 -3 -4 -3 -3 -3 -3 -3 -2 -2 -2 -2 -1 -1 -1 -0
1 1 0 -0 -1 -1 -2 -2 -3 -3 -4 -5 -5 -5 -5 -5 -5 -5 -4 -4 -4 -4 -4 -4 -4 -4 -4 -3 -3 -3 -3 -3 -2 -2 -2 -2 -1 -1
0 -0 -1 -1 -2 -2 -2 -3 -4 -4 -5 -5 -5 -5 -5 -5 -5 -5 -5 -5 -5 -5 -4 -4 -4 -4 -4 -4 -4 -3 -3 -3 -3 -3 -2 -2 -2 -2
-0 -1 -1 -2 -2 -3 -4 -4 -5 -5 -5 -5 -6 -6 -6 -5 -5 -5 -6 -5 -5 -5 -5 -4 -4 -4 -4 -4 -4 -3 -3 -3 -3 -3 -3 -3 -2 -2
-1 -1 -2 -2 -2 -3 -4 -5 -5 -5 -6 -6 -6 -6 -6 -6 -6 -6 -6 -6 -6 -5 -5 -5 -5 -4 -4 -4 -4 -4 -4 -4 -3 -3 -3 -3 -3 -3
-2 -2 -2 -3 -3 -4 -4 -4 -5 -5 -6 -6 -6 -6 -6 -6 -6 -6 -6 -6 -6 -6 -5 -5 -5 -5 -4 -4 -4 -4 -4 -4 -4 -4 -3 -3 -3 -3
-2 -2 -3 -3 -4 -4 -5 -5 -5 -5 -6 -6 -6 -6 -6 -6 -6 -6 -6 -6 -5 -5 -5 -6 -5 -5 -4 -4 -4 -4 -4 -4 -4 -4 -4 -4 -3 -3
-3 -3 -4 -4 -5 -5 -6 -6 -6 -6 -6 -6 -6 -6 -6 -6 -6 -6 -6 -6 -6 -6 -5 -6 -5 -5 -5 -4 -4 -4 -4 -4 -4 -4 -4 -4 -4 -4
-3 -4 -4 -5 -5 -6 -6 -6 -6 -6 -6 -6 -6 -6 -6 -6 -6 -6 -6 -7 -7 -7 -6 -6 -6 -6 -5 -5 -4 -4 -5 -4 -4 -4 -4 -4 -4 -4
-5 -5 -5 -5 -6 -6 -6 -6 -6 -6 -6 -6 -6 -6 -6 -6 -6 -6 -7 -7 -7 -7 -7 -7 -6 -6 -6 -6 -5 -5 -5 -5 -5 -5 -5 -5 -5 -4
-5 -5 -6 -6 -6 -6 -6 -6 -6 -7 -7 -7 -7 -7 -7 -7 -7 -7 -7 -7 -7 -7 -7 -7 -7 -7 -6 -6 -6 -6 -5 -5 -5 -5 -5 -5 -5 -5
-6 -6 -6 -6 -6 -6 -6 -7 -7 -7 -7 -7 -7 -7 -7 -7 -7 -7 -7 -7 -7 -7 -7 -7 -7 -7 -7 -6 -6 -6 -6 -6 -6 -5 -5 -5 -5 -5
-6 -6 -6 -7 -7 -7 -7 -7 -7 -7 -8 -8 -8 -8 -8 -8 -7 -7 -8 -7 -7 -7 -7 -7 -7 -7 -7 -7 -7 -6 -6 -6 -6 -6 -6 -6 -6 -5
-6 -6 -6 -7 -7 -7 -7 -8 -8 -8 -8 -9 -9 -9 -8 -8 -8 -8 -8 -8 -8 -8 -7 -7 -7 -7 -7 -7 -7 -6 -6 -6 -6 -6 -6 -6 -6 -6
-7 -7 -7 -7 -8 -8 -8 -9 -9 -9 -9 -9 -9 -9 -9 -9 -9 -8 -8 -8 -8 -8 -8 -7 -7 -7 -7 -7 -7 -7 -6 -6 -6 -6 -6 -6 -6 -6
-7 -7 -8 -8 -8 -9 -9 -9 -9 -9 -9 -9 -9 -9 -9 -9 -9 -9 -9 -8 -8 -8 -8 -8 -8 -8 -8 -7 -7 -7 -7 -7 -7 -7 -7 -7 -6 -6
-8 -8 -9 -9 -9 -9 -9 -10 -10 -10 -10 -10 -10 -10 -9 -9 -9 -9 -9 -9 -9 -9 -8 -8 -8 -8 -8 -8 -8 -7 -7 -7 -7 -7 -7 -7 -7 -7
-9 -9 -9 -9 -10 -10 -10 -10 -10 -10 -10 -10 -10 -10 -10 -10 -9 -9 -9 -9 -9 -9 -9 -8 -8 -8 -8 -8 -8 -7 -7 -7 -8 -8 -7 -7 -7 -7
-9 -10 -10 -10 -10 -10 -11 -11 -11 -11 -11 -10 -10 -10 -10 -10 -10 -10 -9 -9 -9 -9 -9 -8 -8 -8 -9 -9 -8 -8 -8 -8 -8 -8 -8 -8 -8 -8
-10 -10 -10 -11 -11 -11 -11 -11 -11 -11 -11 -11 -11 -10 -10 -10 -10 -10 -10 -10 -9 -9 -9 -9 -9 -9 -9 -9 -9 -8 -8 -8 -8 -8 -8 -8 -8 -8
Wind_Speed
5 5 5 5 5 5 5 5 5 7 7 5 4 4 8 15 20 20 18 23 26 27 28 28 28 29 29 29 29 29 29 28 28 28 28 29 29 29
4 6 6 5 5 5 6 6 6 8 9 4 5 7 11 16 21 21 20 27 27 27 27 27 28 28 28 28 28 28 28 28 28 28 29 29 29 30
6 6 8 7 6 6 6 6 7 7 13 11 6 7 9 12 15 18 20 19 20 25 27 27 27 27 27 27 27 27 27 27 27 27 28 28 29 29
8 7 8 7 8 7 7 8 8 8 10 16 10 7 9 11 12 13 14 17 17 24 27 27 27 27 27 26 26 26 26 25 25 25 26 26 27 27
8 8 9 8 9 8 8 8 8 10 9 12 14 9 8 9 10 11 12 11 15 20 23 24 25 26 26 26 26 25 24 24 24 24 24 24 24 25
9 9 9 9 10 10 9 10 10 10 11 12 13 11 9 9 8 9 10 8 10 12 17 21 24 25 25 25 25 24 23 22 23 23 23 23 23 23
9 9 10 12 15 13 12 9 9 9 10 11 13 12 10 7 7 7 12 10 10 10 11 11 11 10 13 20 22 22 23 22 22 22 22 22 22 22
9 9 10 13 16 20 22 22 19 14 11 12 13 13 13 10 9 10 11 13 12 5 7 9 7 10 9 9 19 23 23 23 22 22 21 21 21 21
9 9 10 10 16 10 17 22 21 24 23 17 16 15 14 12 12 14 13 14 15 8 9 13 9 11 9 13 22 23 23 22 21 21 21 20 19 19
9 10 11 11 12 13 12 12 13 14 17 14 13 15 15 14 14 16 16 15 13 9 9 11 9 9 10 8 19 22 22 21 20 19 19 18 18 17
10 10 11 11 19 23 16 13 14 12 18 23 24 23 26 26 20 11 10 11 12 7 5 6 7 8 8 8 11 17 16 16 16 15 15 15 14 13
9 10 17 18 22 24 15 12 15 14 11 13 16 18 15 16 20 12 9 11 11 7 5 5 5 4 5 4 4 4 5 9 11 12 12 11 11 5
9 8 9 20 24 25 22 13 18 18 12 10 9 8 8 8 9 9 8 9 10 9 5 4 5 5 6 5 3 3 3 4 4 5 7 8 8 6
10 8 11 22 25 25 19 19 25 21 9 7 8 8 8 8 8 8 9 9 10 11 9 8 7 7 7 7 5 3 3 3 3 3 3 5 5 6
11 19 22 26 24 16 18 23 19 9 7 9 9 9 7 7 7 7 7 8 8 9 9 9 9 8 7 6 5 3 3 3 2 2 2 2 2 1
13 17 22 22 17 16 15 12 8 8 9 9 9 8 6 6 7 6 7 6 6 7 6 7 8 8 7 7 6 5 4 3 2 1 2 2 2 1
13 10 8 7 7 7 7 7 7 7 8 8 8 8 8 8 8 6 5 5 6 6 6 4 5 5 6 5 5 5 4 4 3 2 1 2 2 2
18 9 8 8 9 8 9 8 7 8 8 8 8 8 8 8 8 7 6 6 6 6 6 4 3 3 2 3 6 6 4 4 3 2 2 2 2 2
13 8 8 9 9 8 8 8 9 8 8 8 9 8 8 8 8 8 7 6 6 6 5 4 3 2 3 3 3 4 4 2 2 2 2 2 2 2
8 9 9 9 9 8 9 8 8 8 8 8 8 8 8 8 8 7 7 7 6 6 5 3 3 4 4 4 3 3 4 3 2 2 2 1 2 3
9 9 9 9 8 8 8 8 8 9 9 8 8 8 8 8 8 7 7 10 8 5 5 5 5 6 3 1 2 3 2 4 5 3 2 2 1 1
10 10 9 9 8 8 8 8 9 9 9 9 8 8 8 7 8 8 7 7 6 5 6 4 3 2 2 4 4 3 2 2 3 5 6 5 3 3
10 9 9 9 8 8 8 9 10 10 9 8 8 8 8 8 7 7 7 7 6 6 5 4 2 2 3 4 4 3 3 3 2 2 2 5 7 7
Wind_Direction
254 255 252 253 247 242 237 232 251 288 291 260 263 271 288 296 297 295 289 294 296 295 294 293 291 289 287 285 283 282 280 279 278 276 274 272 271 270
254 255 255 255 253 247 241 239 233 254 278 261 262 275 287 292 294 296 292 295 296 296 294 292 290 288 286 284 283 282 280 278 276 274 273 271 269 268
265 259 260 260 258 254 247 243 245 246 272 281 261 268 270 277 286 286 287 286 287 291 293 292 291 289 287 285 283 282 281 279 277 276 275 273 271 269
268 266 266 269 261 258 253 251 252 247 263 283 285 273 264 267 273 275 282 284 283 288 291 291 291 291 289 287 285 283 281 280 279 278 277 275 274 273
262 262 265 265 267 264 257 258 260 263 260 274 284 279 271 268 270 272 273 275 280 284 288 290 290 290 289 288 287 286 285 283 281 279 278 276 275 275
258 257 258 256 261 265 267 262 262 264 266 272 282 283 276 267 264 273 280 270 272 277 281 283 284 286 288 289 289 288 287 285 283 280 278 277 275 273
262 258 257 266 272 277 277 267 263 268 272 277 283 286 282 275 271 272 282 283 273 266 270 271 273 273 277 281 284 285 284 283 281 279 277 275 274 272
267 266 266 275 282 287 288 288 286 282 281 280 283 283 283 278 279 280 284 287 287 246 255 269 262 268 266 261 273 277 278 278 277 276 275 274 272 271
265 269 276 276 288 278 283 286 285 283 283 282 281 281 283 281 279 280 277 277 279 272 274 279 268 269 266 269 276 278 279 278 278 277 275 274 273 272
263 263 267 271 273 280 271 269 264 267 272 275 270 272 272 273 268 272 277 280 276 267 258 275 273 270 271 265 275 277 278 279 279 278 277 275 273 272
266 264 269 269 279 288 288 281 279 274 279 280 279 281 283 288 290 290 287 287 288 278 242 258 272 274 273 271 271 276 279 283 284 282 280 278 275 274
271 265 277 283 288 291 288 282 285 285 278 280 281 282 283 284 287 282 277 280 282 282 250 244 266 276 283 269 270 279 286 289 291 291 288 284 281 278
279 273 269 287 291 292 292 288 288 293 288 285 284 279 275 271 270 264 257 260 271 272 267 267 271 262 265 283 284 268 263 275 290 294 299 295 289 276
284 278 278 289 291 293 296 294 297 302 298 293 287 282 278 275 271 267 262 258 256 264 269 266 269 268 268 271 273 274 276 269 270 278 286 301 300 291
283 286 290 294 298 297 294 296 300 299 292 288 283 280 273 271 274 276 274 267 265 263 263 257 259 264 258 259 261 259 277 276 260 264 279 281 281 297
285 285 290 293 293 292 293 295 287 277 281 281 282 280 280 278 276 274 277 280 282 282 270 258 255 251 253 253 255 259 251 261 282 274 280 289 282 266
287 282 277 280 277 276 278 277 274 278 283 277 280 283 284 283 281 273 268 271 272 280 287 287 272 255 247 247 253 252 247 248 250 247 245 278 283 269
296 287 284 282 282 283 285 285 281 279 278 279 280 279 281 281 283 279 269 266 269 270 270 272 283 293 284 263 239 247 246 246 246 225 207 235 278 280
292 283 282 282 279 278 278 278 280 279 277 277 278 278 278 278 277 277 273 267 268 266 263 254 241 236 247 265 284 234 219 228 220 217 213 214 238 265
273 275 277 275 273 274 275 276 278 281 277 274 274 275 275 276 276 272 268 263 267 267 262 248 229 224 225 233 248 268 230 213 213 222 216 215 253 283
278 275 273 271 270 270 272 273 275 278 276 273 273 272 271 272 272 269 267 269 269 259 255 252 244 251 240 211 242 260 273 245 220 206 183 177 220 272
279 277 275 270 268 267 268 271 274 274 272 269 268 269 268 268 270 270 266 263 258 250 251 256 247 239 206 218 234 241 260 286 268 244 228 206 182 194
278 276 274 271 268 265 265 268 270 273 270 266 265 266 265 267 265 264 264 260 254 249 249 251 238 223 228 224 230 234 234 234 236 243 250 243 237 232
Height
1500 1497 1495 1493 1491 1488 1485 1482 1478 1468 1461 1459 1459 1458 1457 1453 1450 1446 1443 1440 1437 1435 1433 1431 1429 1427 1426 1425 1424 1423 1423 1422 1422 1422 1422 1423 1423 1424
1494 1492 1489 1487 1484 1482 1479 1476 1473 1467 1458 1452 1452 1451 1448 1445 1443 1439 1435 1432 1429 1426 1424 1421 1419 1418 1416 1415 1414 1413 1413 1412 1412 1412 1412 1413 1413 1414
1489 1486 1483 1481 1478 1475 1472 1469 1466 1462 1452 1445 1445 1443 1440 1438 1434 1431 1428 1424 1421 1418 1416 1413 1411 1409 1408 1406 1405 1404 1403 1403 1402 1402 1402 1403 1403 1404
1482 1480 1477 1474 1471 1468 1465 1461 1458 1454 1448 1439 1436 1435 1432 1430 1427 1423 1420 1417 1414 1411 1408 1405 1403 1401 1399 1398 1396 1395 1394 1393 1393 1393 1393 1393 1393 1394
1476 1473 1470 1467 1463 1460 1456 1453 1449 1446 1441 1435 1428 1427 1424 1422 1419 1416 1413 1410 1407 1404 1401 1398 1395 1393 1391 1389 1388 1387 1385 1384 1384 1384 1383 1383 1384 1384
1469 1466 1463 1459 1455 1452 1448 1444 1441 1437 1434 1429 1423 1419 1417 1414 1412 1408 1404 1401 1398 1396 1393 1390 1388 1385 1383 1381 1380 1378 1377 1376 1375 1375 1374 1375 1375 1375
1461 1458 1455 1452 1448 1444 1441 1437 1434 1430 1426 1422 1416 1412 1409 1407 1405 1401 1397 1392 1389 1388 1384 1381 1380 1377 1375 1373 1371 1370 1368 1367 1367 1366 1366 1366 1366 1367
1452 1450 1447 1444 1440 1436 1433 1430 1427 1423 1419 1415 1410 1406 1402 1400 1397 1394 1390 1385 1380 1379 1377 1372 1372 1368 1366 1365 1363 1362 1360 1360 1359 1359 1359 1358 1358 1359
1445 1441 1437 1434 1431 1427 1423 1420 1417 1415 1412 1409 1403 1398 1395 1392 1390 1385 1382 1378 1373 1371 1370 1364 1363 1360 1359 1357 1356 1354 1353 1352 1352 1351 1351 1351 1351 1351
1437 1433 1429 1425 1422 1418 1413 1410 1407 1404 1402 1399 1395 1390 1387 1384 1381 1378 1374 1369 1365 1364 1363 1358 1355 1353 1351 1349 1348 1347 1346 1345 1344 1344 1344 1344 1344 1344
1428 1424 1421 1416 1413 1410 1407 1402 1397 1394 1393 1390 1386 1383 1379 1377 1374 1370 1366 1362 1357 1355 1355 1352 1348 1346 1343 1341 1341 1340 1339 1339 1338 1337 1337 1337 1338 1338
1418 1415 1413 1409 1405 1403 1399 1394 1389 1385 1382 1378 1376 1373 1370 1367 1365 1363 1359 1355 1351 1347 1346 1345 1342 1341 1337 1335 1335 1335 1334 1334 1333 1332 1332 1332 1332 1332
1408 1405 1403 1400 1397 1394 1391 1387 1382 1378 1374 1370 1366 1363 1360 1358 1356 1354 1351 1348 1345 1341 1341 1340 1337 1336 1334 1331 1330 1330 1330 1329 1328 1328 1327 1327 1327 1327
1401 1397 1394 1391 1389 1386 1382 1378 1375 1371 1366 1361 1358 1354 1352 1350 1347 1345 1343 1341 1338 1336 1334 1333 1331 1330 1329 1327 1326 1325 1325 1325 1324 1323 1323 1323 1323 1323
1393 1389 1386 1383 1380 1376 1373 1370 1366 1362 1358 1354 1350 1347 1344 1342 1340 1337 1335 1333 1331 1329 1328 1326 1325 1324 1324 1322 1321 1321 1320 1320 1320 1320 1320 1320 1320 1320
1385 1381 1377 1374 1371 1367 1364 1361 1358 1354 1350 1347 1343 1340 1338 1335 1333 1331 1329 1327 1324 1323 1322 1321 1319 1319 1318 1318 1317 1316 1317 1317 1317 1317 1317 1317 1317 1317
1377 1372 1368 1365 1361 1358 1355 1352 1349 1346 1343 1340 1337 1334 1331 1329 1327 1325 1323 1321 1319 1317 1316 1316 1315 1314 1313 1313 1313 1313 1313 1313 1314 1314 1314 1314 1314 1315
1370 1364 1360 1357 1353 1350 1347 1343 1341 1338 1336 1333 1330 1328 1326 1323 1321 1319 1318 1316 1314 1313 1312 1311 1310 1310 1310 1309 1310 1309 1309 1310 1310 1311 1311 1311 1312 1313
1360 1356 1352 1349 1346 1342 1339 1336 1333 1331 1329 1326 1324 1322 1320 1318 1316 1314 1312 1311 1309 1308 1307 1307 1306 1306 1306 1305 1306 1306 1307 1307 1307 1308 1308 1309 1309 1310
1351 1347 1344 1340 1337 1335 1332 1329 1326 1324 1321 1319 1317 1316 1314 1312 1310 1308 1307 1305 1304 1303 1302 1302 1302 1302 1302 1303 1302 1303 1304 1304 1305 1305 1306 1306 1307 1308
1341 1338 1335 1332 1329 1327 1324 1321 1319 1316 1314 1312 1311 1309 1307 1306 1304 1302 1301 1300 1299 1298 1298 1298 1298 1299 1298 1299 1298 1298 1300 1301 1301 1302 1303 1304 1304 1305
1332 1329 1326 1324 1321 1319 1316 1313 1311 1308 1307 1305 1304 1302 1301 1300 1298 1297 1295 1294 1294 1293 1293 1293 1294 1294 1294 1294 1294 1295 1296 1297 1298 1299 1300 1301 1302 1303
1323 1320 1317 1315 1312 1310 1308 1305 1303 1301 1299 1298 1297 1295 1294 1293 1292 1291 1290 1289 1288 1288 1288 1288 1288 1289 1289 1290 1290 1291 1292 1293 1294 1295 1297 1298 1299 1301